LEMUR-2-SARAHBETTYBOO (43888 NORAD) Tracking and Keplerian Element Data

This shows tracking and keplerian element data for the satellite.

Feedback or suggestion? Click here.




ElementValue
Catalog43888
NameLEMUR-2-SARAHBETTYBOO
Epoch Orbit370
Epoch Day20.94981822
Epoch Year2019
RAAN291.0829
Inclination97.7298
Eccentricity0.0012038
Argument of Perigee152.1889
Mean Anonmoly207.9978
Mean Motion14.96693978
Decay Rate9.21E-06
L11 43888U 18111N 19020.94981822 .00000921 00000-0 85666-4 0 9995
L22 43888 97.7298 291.0829 0012038 152.1889 207.9978 14.96693978 3708

Live tracking and technical data element details for LEMUR-2-SARAHBETTYBOO (NORAD 43888). LEMUR-2-SARAHBETTYBOO can be tracked NOW for your location showing map with azimuth and elevation plus other details from your city location.

Track the satellite on the map from your city or location and see movement details for azimuth, elevation, latitude, longitude, range, height, and movement on the map or in text.







IsCatalogInMostPopularTable: catalog: 43888, numindb: 17
Update: records affected: 1



GetName: 43888 LEMUR-2-SARAHBETTYBOO

Hit Count: updated at: Wed, 23 Jan 2019 02:59:52 GMT